Flag for Pakistan Weather past 2 weeks in Peshawar, Pakistan

Now
91 °F

Hot.


Feels Like: 105 °F
Forecast: 77 / 96 °F
Wind: N/A

Location: Peshawar Airport

Current Time: Aug 1, 2014 at 5:15:31 PM

Latest Report: Aug 1, 2014 at 5:00 PM


Visibility: N/A

Pressure: 29.47 "Hg

Humidity: 63%

Dew point: 77 °F

Location of PeshawarLocation

Historic Weather in Peshawar — Graph

°F

Peshawar temperature yesterday

Maximum temperature yesterday: 99 °F (at 3:00 PM)
Minimum temperature yesterday: 82 °F (at 6:00 AM)
Average temperature yesterday: 89 °F

Past Weeks' High & Low Weather Summary

 TemperatureHumidityPressure
High106 °F (Jul 21, 4:00 PM)100% (Jul 29, 11:00 AM)29.71 "Hg (Jul 29, 11:00 AM)
Low79 °F (Jul 18, 4:00 AM)36% (Jul 21, 4:00 PM)29.33 "Hg (Jul 18, 5:00 PM)
Average88 °F68%29.52 "Hg
* Reported Jul 17 3:00 PM — Aug 1 3:00 PM, Peshawar, Weather by CustomWeather, © 2014

Note: Actual official high and low records may vary slightly from our data, if they occured in-between our weather recording intervals... More about our weather records

Advertising

Peshawar weather history for previous 24 hours

 ConditionsComfort  
Time TempWeatherWind HumidityBarometerVisibility
3:00 PM
Aug 1
93 °FExtremely hot.N/A59%29.50 "HgN/A
2:00 PM91 °FHot.N/A63%29.53 "HgN/A
1:00 PM91 °FHot.N/A63%29.56 "HgN/A
12:00 PM91 °FHot.N/A59%29.59 "HgN/A
11:00 AM90 °FHot.N/A63%29.59 "HgN/A
10:00 AM88 °FWarm.N/A66%29.59 "HgN/A
9:00 AM86 °FWarm.N/A66%29.59 "HgN/A
8:00 AM84 °FWarm.N/A74%29.56 "HgN/A
7:00 AM84 °FWarm.N/A74%29.56 "HgN/A
6:00 AM84 °FWarm.N/A74%29.56 "HgN/A
5:00 AM84 °FWarm.N/A74%29.56 "HgN/A
4:00 AM86 °FWarm.N/A70%29.53 "HgN/A
3:00 AM86 °FWarm.N/A70%29.53 "HgN/A
2:00 AM86 °FWarm.N/A70%29.53 "HgN/A
1:00 AM88 °FWarm.N/A70%29.53 "HgN/A
12:00 AM88 °FWarm.N/A70%29.53 "HgN/A
11:00 PM
Jul 31
88 °FWarm.N/A70%29.53 "HgN/A
10:00 PM90 °FHot.N/A67%29.50 "HgN/A
9:00 PM90 °FHot.N/A67%29.50 "HgN/A
8:00 PM91 °FHot.N/A67%29.47 "HgN/A
7:00 PM93 °FSleet. Cloudy.N/A63%29.47 "HgN/A
6:00 PM93 °FExtremely hot.N/A63%29.47 "HgN/A
5:00 PM95 °FExtremely hot.N/A60%29.47 "HgN/A
Weather by CustomWeather, © 2014

See weather overviewHow to use our weather pages